Cincinnati northern Kentucky International Airport Cincinnati US
ICAO: KCVG
IATA: CVG
Category: Large
Scheduled Services: Yes

Elevation: 896 ft
TransAlt. 18000 ft.

Airport Communications:
APP:119.7
ATIS:134.375
CLNC DEL:127.175
DEP:126.65
GND:121.3
LOUISVILLE RDO:117.3
TWR:118.3
UNICOM:122.95

KCVG Zoom In..

Runways:

(A) RW 09 length 12000 ft width 150 ft
ILS 111.90 / hdg 94

(B) RW 18C length 11000 ft width 150 ft
ILS 111.55 / hdg 184

(C) RW 18L length 10000 ft width 150 ft
ILS 110.15 / hdg 184

(D) RW 18R length 8000 ft width 150 ft
ILS 110.75 / hdg 184

(E) RW 27 length 12000 ft width 150 ft
ILS 108.70 / hdg 274

(F) RW 36C length 11000 ft width 150 ft
ILS 109.90 / hdg 4

(G) RW 36L length 8000 ft width 150 ft
ILS 110.75 / hdg 4

(H) RW 36R length 10000 ft width 150 ft
ILS 110.35 / hdg 4

Location; KCVG
Day. 22 / Time. 00.52 Zulu
* Altimeter: 30.30
* Temperature: 13° c. 55.4°f.
* Wind from: 060° Speed 13 kn.
Dewpoint: -06° c.
Visibility: 10 Statute Miles.
Clouds: Overcast 22000 ft.

KCVG 220052Z 06013KT 10SM OVC220 13/M06 A3030 RMK AO2 SLP260 T01281056


Wind From 060°
Speed 13 kn.

  YouTube Music Video
 
jpsmedia.com for Web Design  worldairports.se 2018   terms of use